Погода в Малоярославеце

Погода в Малоярославеце : погода сейчас, прогноз погоды и архив. Всё, что Вы хотите узнать о погоде в Малоярославеце!

Хотите узнать прогноз погоды в Малоярославеце? Тогда Вам сюда: Погода в Малоярославеце

Поиск расширенной информации на нашем сайте:

Другие новости

Новости СМИ2

Главная страница сайта

Новости сайта

03.07.2017

Напоминаем, что на нашем специализированном сайте Метеоцентр.Азия вы можете получить высокодетализированные автоматические прогнозы погоды по пунктам России, СНГ и мира в авиационном формате (включающие направление и скорость ветра, видимость, явления погоды, количество и форму облачности, нижнюю и верхнюю границу облачности).

Рекомендуем: http://www.usadba22.ru/ купить дачный участок в рассрочку.

Погода в Малоярославеце - сегодня

Время (UTC), дата Ветер
(°,м/с) 
Видим.   Явления Облачность Т
(°С)
Тd
(°С)
f(%) Тe
(°С)
Pmin
(гПа)
dP
(гПа)
Po
(мм)
O2
(г/м3)
Тmin Tmax R s Состояние
почвы
09 20.01.18 100 (В) 4000 м  слаб. снег  10/9 270 м средняя 
[Frnb|As op]
-9 -10.6 88 -11  1011.2  739  309           
12 20.01.18 090 (В) 4000 м  в посл. час снег  10/8 300 м средняя 
[Frnb|As op]
-8.3 -9.7 90 -10  1010.2  -0.9  739  308           
15 20.01.18 090 (В) н/о    10/10 400 м 
[St]
-8.4 -9.9 89 -10  1009.9  -0.3  738  308         
18 20.01.18 080 (В) н/о  слаб. снег  10/8 330 м средняя 
[Frnb|As op]
-7.9 -8.9 93 -8  1009.4  -0.5  738  307    -7.9     
21 20.01.18 070 (В) н/о  слаб. снег  10/9 240 м средняя 
[Frnb|As op]
-7 -7.9 93 -7  1009.1  -0.2  738  306           
00 21.01.18 тихо ()   н/о  слаб. снег  10/9 240 м средняя 
[Frnb|As op]
-6 -6.8 94 -6  1008.7  -0.3  738  305           
03 21.01.18 180 (Ю) н/о  слаб. снег  10/8 330 м средняя 
[Frnb|As op]
-3.3 -4 95 -4  1008.4  738  301  -8.4       
06 21.01.18 180 (Ю) 10 км  в посл. час снег  10/10 300 м 
[St]
-2.9 -3.6 95 -4  1009.1  0.7  738  301  -7.9    17  равномерный
сухой снег
100% 
09 21.01.18 190 (Ю) 4000 м    10/10 360 м 
[St]
-2.2 -3.7 89 -2  1009.4  0.3  738  300           
12 21.01.18 тихо ()   4000 м  слаб. снег  10/8 300 м средняя 
[Frnb|As op]
-2.3 -3.8 89 -2  1009.4  738  300           
15 21.01.18 280 (З) н/о  снежные кристаллы  10/10 500 м 
[Sc]
-3.6 -4.4 94 -5  1009.8  0.4  739  302      0.7     
18 21.01.18 290 (З) н/о  слаб. снег  10/8 300 м средняя 
[Frnb|As op]
-5.6 -6.3 95 -7  1010.3  0.3  739  305    -2  0.7     
21 21.01.18 290 (З) н/о  слаб. снег  10/8 330 м средняя 
[Frnb|As op]
-7.1 -8.4 90 -10  1011.3  0.8  740  307           
00 22.01.18 280 (З) н/о  слаб. снег  10/8 360 м средняя 
[Frnb|As op]
-8.3 -9.7 90 -10  1012.7  1.3  741  309           
03 22.01.18 260 (З) н/о  {снег}  10/10 270 м 
[St]
-9.5 -10.7 91 -11  1014.6  1.7  742  311  -9.5    0.6     
06 22.01.18 210 (ЮЗ) 4000 м  снежные кристаллы  10/9 500 м 
[Sc]
-10 -11.3 90 -12  1015.6  0.9  743  312  -10.2    0.3  17  равномерный
сухой снег
100% 
09 22.01.18 250 (З) 10 км  {снег}  3/3 300 м 
[Sc]
-7.2 -10.1 80 -9  1017  1.6  744  309           
12 22.01.18 250 (З) 20000 м  {снег}  4/4 300 м 
[Sc]
-6.9 -10.6 75 -10  1018.9  1.8  745  309           
15 22.01.18 210 (ЮЗ) н/о    ясно 
-11.9 -12.5 95 -12  1020.8  1.4  746  315      0.0     
18 22.01.18 210 (ЮЗ) н/о    ясно 
-11.8 -12.4 95 -12  1022  1.2  747  316    -6.3  0.0     
21 22.01.18 190 (Ю) н/о    ясно 
-12.2 -12.8 95 -12  1023.2  1.2  748  317           
00 23.01.18 200 (Ю) н/о    ясно 
-13.1 -13.7 95 -13  1024.2  0.8  749  318           
03 23.01.18 180 (Ю) н/о    10/10 330 м 
[St]
-12.7 -14 90 -13  1025.2  749  318  -13.7         
06 23.01.18 240 (ЮЗ) 10 км    10/10 360 м 
[St]
-10.3 -10.9 95 -12  1025.9    750  315  -13.7      17  равномерный
сухой снег
100% 
09 23.01.18 260 (З) 4000 м  дымка  10/10 210 м 
[St]
-10 -10.6 95 -10  1026.5  0.6  750  315           
Время (UTC), дата Ветер
(°,м/с) 
Видим.   Явления Облачность Т
(°С)
Тd
(°С)
f(%) Тe
(°С)
Pmin
(гПа)
dP
(гПа)
Po
(мм)
O2
(г/м3)
Тmin Tmax R s Состояние
почвы

Для получения пояснительной информации подведите курсор к названию столбца.

ПОГОДА в Малоярославеце - архив

Всё, что Вы хотите узнать о погоде в Малоярославеце - удобно и подробно!

Выберите нужную дату (начиная с 1 января 2015* года) и нажмите кнопку "Найти".
Будут отображены архивные сводки погоды по пункту Малоярославец, начиная с указанной даты.


Отображать данные в формате CSV (для использования в таблицах Excel)


Внимание! Наш архив погоды предназначен исключительно для личного некоммерческого использования в познавательных целях. Если Вам необходимы официальные справки о состоянии погоды (для производственных, юридических, коммерческих и т.п. целей), обращайтесь в органы Росгидромета.

*Примечание: данная дата относится к архиву по метеостанциям СССР (Россия, СНГ, Балтия).
Архив по метеостанциям Зарубежной Европы и Азии (кроме Китая) хранится 10 дней, по другим регионам земного шара (Китай, Африка, Америка, Австралия, Океания) - 1 день.

Малоярославец - район местоположения метеостанции


Название, широта, долгота, высота метеостанции:
Малоярославец 55°ш. 36.5°д. 197 м над ур. моря [Российская Федерация]

Дополнительная информация

В oтличие oт бoльшинства пoгoдных сайтoв мы публикуем пoдрoбную метеoинфoрмацию в детальнoм прoфессиoнальнoм фoрмате.

Характеристики температуры и влажнoсти вoздуха измеряются на высoте 2 м в тени вдали oт зданий и деревьев.
Скoрoсть ветра измеряется на высoте 10 м (на урoвне рoста челoвека скoрoсть ветра ниже в 1.5-2 раза). Если метеoстанция нахoдится в гoрoде или в лесу, тo скoрoсть ветра занижена на 2-4 м/с пo сравнению с oткрытым местoм. Скoрoсть ветра над акватoриями крупных рек и oзёр, а также на вершинах хoлмoв на 2-5 м/с выше, чем в oбычных услoвиях.
Атмoсфернoе давление в разных тoчках местнoсти мoжет значительнo oтличаться oт давления на метеoстанции, в зависимoсти oт услoвий рельефа (при пoдъёме на 10 м давление пoнижается примернo на 1 мм рт.ст.).